Time,TemperatureF,DewpointF,PressureIn,WindDirection,WindDirectionDegrees,WindSpeedMPH,WindSpeedGustMPH,Humidity,HourlyPrecipIn,Conditions,Clouds,dailyrainin,SoftwareType,DateUTC
2013-06-13 00:03:00,60.3,51.6,29.92,North,0,0.0,-999.0,73,0.00,,,0.00,Wunderground v.1.15,2013-06-13 05:03:00,
2013-06-13 00:08:00,60.3,51.6,29.92,North,0,0.0,-999.0,73,0.00,,,0.00,Wunderground v.1.15,2013-06-13 05:08:00,
2013-06-13 00:13:00,60.3,51.6,29.92,North,0,0.0,-999.0,73,0.00,,,0.00,Wunderground v.1.15,2013-06-13 05:13:00,
2013-06-13 00:18:00,60.3,51.6,29.92,North,0,0.0,-999.0,73,0.00,,,0.00,Wunderground v.1.15,2013-06-13 05:18:00,
2013-06-13 00:23:00,60.3,51.6,29.92,North,0,0.0,-999.0,73,0.00,,,0.00,Wunderground v.1.15,2013-06-13 05:23:00,
2013-06-13 00:28:00,60.3,51.6,29.92,North,0,0.0,-999.0,73,0.00,,,0.00,Wunderground v.1.15,2013-06-13 05:28:00,
2013-06-13 00:33:00,60.3,51.6,29.92,North,0,0.0,-999.0,73,0.00,,,0.00,Wunderground v.1.15,2013-06-13 05:33:00,
2013-06-13 00:38:00,60.3,51.6,29.92,North,0,0.0,-999.0,73,0.00,,,0.00,Wunderground v.1.15,2013-06-13 05:38:00,
2013-06-13 00:43:00,60.3,51.6,29.92,North,0,0.0,-999.0,73,0.00,,,0.00,Wunderground v.1.15,2013-06-13 05:43:00,
2013-06-13 00:48:00,59.6,50.9,29.94,NNW,338,0.0,-999.0,73,0.00,,,0.00,Wunderground v.1.15,2013-06-13 05:48:00,
2013-06-13 00:53:00,59.6,50.9,29.94,NNW,338,0.0,-999.0,73,0.00,,,0.00,Wunderground v.1.15,2013-06-13 05:53:00,
2013-06-13 00:58:00,59.6,50.9,29.94,NNW,338,0.0,-999.0,73,0.00,,,0.00,Wunderground v.1.15,2013-06-13 05:58:00,
2013-06-13 01:03:00,59.6,50.9,29.94,NNW,338,0.0,-999.0,73,0.00,,,0.00,Wunderground v.1.15,2013-06-13 06:03:00,
2013-06-13 01:08:00,59.6,50.9,29.94,NNW,338,0.0,-999.0,73,0.00,,,0.00,Wunderground v.1.15,2013-06-13 06:08:00,
2013-06-13 01:13:00,59.6,50.9,29.94,NNW,338,0.0,-999.0,73,0.00,,,0.00,Wunderground v.1.15,2013-06-13 06:13:00,
2013-06-13 01:18:00,59.0,50.7,29.95,NNW,338,0.0,-999.0,74,0.00,,,0.00,Wunderground v.1.15,2013-06-13 06:18:00,
2013-06-13 01:23:00,59.0,50.7,29.95,NNW,338,0.0,-999.0,74,0.00,,,0.00,Wunderground v.1.15,2013-06-13 06:23:00,
2013-06-13 01:28:00,59.0,50.7,29.95,NNW,338,0.0,-999.0,74,0.00,,,0.00,Wunderground v.1.15,2013-06-13 06:28:00,
2013-06-13 01:33:00,59.0,50.7,29.95,NNW,338,0.0,-999.0,74,0.00,,,0.00,Wunderground v.1.15,2013-06-13 06:33:00,
2013-06-13 01:38:00,59.0,50.7,29.95,NNW,338,0.0,-999.0,74,0.00,,,0.00,Wunderground v.1.15,2013-06-13 06:38:00,
2013-06-13 01:43:00,59.0,50.7,29.95,NNW,338,0.0,-999.0,74,0.00,,,0.00,Wunderground v.1.15,2013-06-13 06:43:00,
2013-06-13 01:48:00,58.1,50.9,29.95,NW,315,0.0,-999.0,77,0.00,,,0.00,Wunderground v.1.15,2013-06-13 06:48:00,
2013-06-13 01:53:00,58.1,50.9,29.95,NW,315,0.0,-999.0,77,0.00,,,0.00,Wunderground v.1.15,2013-06-13 06:53:00,
2013-06-13 01:58:00,58.1,50.9,29.95,NW,315,0.0,-999.0,77,0.00,,,0.00,Wunderground v.1.15,2013-06-13 06:58:00,
2013-06-13 02:03:00,58.1,50.9,29.95,NW,315,0.0,-999.0,77,0.00,,,0.00,Wunderground v.1.15,2013-06-13 07:03:00,
2013-06-13 02:08:00,58.1,50.9,29.95,NW,315,0.0,-999.0,77,0.00,,,0.00,Wunderground v.1.15,2013-06-13 07:08:00,
2013-06-13 02:13:00,58.1,50.9,29.95,NW,315,0.0,-999.0,77,0.00,,,0.00,Wunderground v.1.15,2013-06-13 07:13:00,
2013-06-13 02:18:00,57.5,50.7,29.95,NNW,338,0.0,-999.0,78,0.00,,,0.00,Wunderground v.1.15,2013-06-13 07:18:00,
2013-06-13 02:23:00,57.5,50.7,29.95,NNW,338,0.0,-999.0,78,0.00,,,0.00,Wunderground v.1.15,2013-06-13 07:23:00,
2013-06-13 02:28:00,57.5,50.7,29.95,NNW,338,0.0,-999.0,78,0.00,,,0.00,Wunderground v.1.15,2013-06-13 07:28:00,
2013-06-13 02:33:00,57.5,50.7,29.95,NNW,338,0.0,-999.0,78,0.00,,,0.00,Wunderground v.1.15,2013-06-13 07:33:00,
2013-06-13 02:38:00,57.5,50.7,29.95,NNW,338,0.0,-999.0,78,0.00,,,0.00,Wunderground v.1.15,2013-06-13 07:38:00,
2013-06-13 02:43:00,57.5,50.7,29.95,NNW,338,0.0,-999.0,78,0.00,,,0.00,Wunderground v.1.15,2013-06-13 07:43:00,
2013-06-13 02:48:00,57.5,50.7,29.97,NW,315,0.0,-999.0,78,0.00,,,0.00,Wunderground v.1.15,2013-06-13 07:48:00,
2013-06-13 02:53:00,57.5,50.7,29.97,NW,315,0.0,-999.0,78,0.00,,,0.00,Wunderground v.1.15,2013-06-13 07:53:00,
2013-06-13 02:58:00,57.5,50.7,29.97,NW,315,0.0,-999.0,78,0.00,,,0.00,Wunderground v.1.15,2013-06-13 07:58:00,
2013-06-13 03:03:00,57.5,50.7,29.97,NW,315,0.0,-999.0,78,0.00,,,0.00,Wunderground v.1.15,2013-06-13 08:03:00,
2013-06-13 03:08:00,57.5,50.7,29.97,NW,315,0.0,-999.0,78,0.00,,,0.00,Wunderground v.1.15,2013-06-13 08:08:00,
2013-06-13 03:13:00,57.5,50.7,29.97,NW,315,0.0,-999.0,78,0.00,,,0.00,Wunderground v.1.15,2013-06-13 08:13:00,
2013-06-13 03:18:00,56.8,50.0,29.98,North,0,0.0,-999.0,78,0.00,,,0.00,Wunderground v.1.15,2013-06-13 08:18:00,
2013-06-13 03:23:00,56.8,50.0,29.98,North,0,0.0,-999.0,78,0.00,,,0.00,Wunderground v.1.15,2013-06-13 08:23:00,
2013-06-13 03:28:00,56.8,50.0,29.98,North,0,0.0,-999.0,78,0.00,,,0.00,Wunderground v.1.15,2013-06-13 08:28:00,
2013-06-13 03:33:00,56.8,50.0,29.98,North,0,0.0,-999.0,78,0.00,,,0.00,Wunderground v.1.15,2013-06-13 08:33:00,
2013-06-13 03:38:00,56.8,50.0,29.98,North,0,0.0,-999.0,78,0.00,,,0.00,Wunderground v.1.15,2013-06-13 08:38:00,
2013-06-13 03:43:00,56.8,50.0,29.98,North,0,0.0,-999.0,78,0.00,,,0.00,Wunderground v.1.15,2013-06-13 08:43:00,
2013-06-13 03:48:00,56.7,49.9,29.98,North,0,1.0,-999.0,78,0.00,,,0.00,Wunderground v.1.15,2013-06-13 08:48:00,
2013-06-13 03:53:00,56.7,49.9,29.98,North,0,1.0,-999.0,78,0.00,,,0.00,Wunderground v.1.15,2013-06-13 08:53:00,
2013-06-13 03:58:00,56.7,49.9,29.98,North,0,1.0,-999.0,78,0.00,,,0.00,Wunderground v.1.15,2013-06-13 08:58:00,
2013-06-13 04:03:00,56.7,49.9,29.98,North,0,1.0,-999.0,78,0.00,,,0.00,Wunderground v.1.15,2013-06-13 09:03:00,
2013-06-13 04:08:00,56.7,49.9,29.98,North,0,1.0,-999.0,78,0.00,,,0.00,Wunderground v.1.15,2013-06-13 09:08:00,
2013-06-13 04:13:00,56.7,49.9,29.98,North,0,1.0,-999.0,78,0.00,,,0.00,Wunderground v.1.15,2013-06-13 09:13:00,
2013-06-13 04:18:00,56.1,49.7,29.98,NNW,338,0.0,-999.0,79,0.00,,,0.00,Wunderground v.1.15,2013-06-13 09:18:00,
2013-06-13 04:23:00,56.1,49.7,29.98,NNW,338,0.0,-999.0,79,0.00,,,0.00,Wunderground v.1.15,2013-06-13 09:23:00,
2013-06-13 04:28:00,56.1,49.7,29.98,NNW,338,0.0,-999.0,79,0.00,,,0.00,Wunderground v.1.15,2013-06-13 09:28:00,
2013-06-13 04:33:00,56.1,49.7,29.98,NNW,338,0.0,-999.0,79,0.00,,,0.00,Wunderground v.1.15,2013-06-13 09:33:00,
2013-06-13 04:38:00,56.1,49.7,29.98,NNW,338,0.0,-999.0,79,0.00,,,0.00,Wunderground v.1.15,2013-06-13 09:38:00,
2013-06-13 04:43:00,56.1,49.7,29.98,NNW,338,0.0,-999.0,79,0.00,,,0.00,Wunderground v.1.15,2013-06-13 09:43:00,
2013-06-13 04:48:00,55.3,49.6,30.00,North,0,0.0,-999.0,81,0.00,,,0.00,Wunderground v.1.15,2013-06-13 09:48:00,
2013-06-13 04:53:00,55.3,49.6,30.00,North,0,0.0,-999.0,81,0.00,,,0.00,Wunderground v.1.15,2013-06-13 09:53:00,
2013-06-13 04:58:00,55.3,49.6,30.00,North,0,0.0,-999.0,81,0.00,,,0.00,Wunderground v.1.15,2013-06-13 09:58:00,
2013-06-13 05:03:00,55.3,49.6,30.00,North,0,0.0,-999.0,81,0.00,,,0.00,Wunderground v.1.15,2013-06-13 10:03:00,
2013-06-13 05:08:00,55.3,49.6,30.00,North,0,0.0,-999.0,81,0.00,,,0.00,Wunderground v.1.15,2013-06-13 10:08:00,
2013-06-13 05:13:00,55.3,49.6,30.00,North,0,0.0,-999.0,81,0.00,,,0.00,Wunderground v.1.15,2013-06-13 10:13:00,
2013-06-13 05:18:00,54.8,49.4,30.00,North,0,0.0,-999.0,82,0.00,,,0.00,Wunderground v.1.15,2013-06-13 10:18:00,
2013-06-13 05:23:00,54.8,49.4,30.00,North,0,0.0,-999.0,82,0.00,,,0.00,Wunderground v.1.15,2013-06-13 10:23:00,
2013-06-13 05:28:00,54.8,49.4,30.00,North,0,0.0,-999.0,82,0.00,,,0.00,Wunderground v.1.15,2013-06-13 10:28:00,
2013-06-13 05:33:00,54.8,49.4,30.00,North,0,0.0,-999.0,82,0.00,,,0.00,Wunderground v.1.15,2013-06-13 10:33:00,
2013-06-13 05:38:00,54.8,49.4,30.00,North,0,0.0,-999.0,82,0.00,,,0.00,Wunderground v.1.15,2013-06-13 10:38:00,
2013-06-13 05:43:00,54.8,49.4,30.00,North,0,0.0,-999.0,82,0.00,,,0.00,Wunderground v.1.15,2013-06-13 10:43:00,
2013-06-13 05:48:00,54.6,49.5,30.01,North,0,0.0,-999.0,83,0.00,,,0.00,Wunderground v.1.15,2013-06-13 10:48:00,
2013-06-13 05:53:00,54.6,49.5,30.01,North,0,0.0,-999.0,83,0.00,,,0.00,Wunderground v.1.15,2013-06-13 10:53:00,
2013-06-13 05:58:00,54.6,49.5,30.01,North,0,0.0,-999.0,83,0.00,,,0.00,Wunderground v.1.15,2013-06-13 10:58:00,
2013-06-13 06:03:00,54.6,49.5,30.01,North,0,0.0,-999.0,83,0.00,,,0.00,Wunderground v.1.15,2013-06-13 11:03:00,
2013-06-13 06:08:00,54.6,49.5,30.01,North,0,0.0,-999.0,83,0.00,,,0.00,Wunderground v.1.15,2013-06-13 11:08:00,
2013-06-13 06:13:00,54.6,49.5,30.01,North,0,0.0,-999.0,83,0.00,,,0.00,Wunderground v.1.15,2013-06-13 11:13:00,
2013-06-13 06:18:00,55.3,50.5,30.03,North,0,0.0,-999.0,84,0.00,,,0.00,Wunderground v.1.15,2013-06-13 11:18:00,
2013-06-13 06:23:00,55.3,50.5,30.03,North,0,0.0,-999.0,84,0.00,,,0.00,Wunderground v.1.15,2013-06-13 11:23:00,
2013-06-13 06:28:00,55.3,50.5,30.03,North,0,0.0,-999.0,84,0.00,,,0.00,Wunderground v.1.15,2013-06-13 11:28:00,
2013-06-13 06:33:00,55.3,50.5,30.03,North,0,0.0,-999.0,84,0.00,,,0.00,Wunderground v.1.15,2013-06-13 11:33:00,
2013-06-13 06:38:00,55.3,50.5,30.03,North,0,0.0,-999.0,84,0.00,,,0.00,Wunderground v.1.15,2013-06-13 11:38:00,
2013-06-13 06:43:00,55.3,50.5,30.03,North,0,0.0,-999.0,84,0.00,,,0.00,Wunderground v.1.15,2013-06-13 11:43:00,
2013-06-13 06:48:00,56.5,51.4,30.03,North,0,0.0,-999.0,83,0.00,,,0.00,Wunderground v.1.15,2013-06-13 11:48:00,
2013-06-13 06:53:00,56.5,51.4,30.03,North,0,0.0,-999.0,83,0.00,,,0.00,Wunderground v.1.15,2013-06-13 11:53:00,
2013-06-13 06:58:00,56.5,51.4,30.03,North,0,0.0,-999.0,83,0.00,,,0.00,Wunderground v.1.15,2013-06-13 11:58:00,
2013-06-13 07:03:00,56.5,51.4,30.03,North,0,0.0,-999.0,83,0.00,,,0.00,Wunderground v.1.15,2013-06-13 12:03:00,
2013-06-13 07:08:00,56.5,51.4,30.03,North,0,0.0,-999.0,83,0.00,,,0.00,Wunderground v.1.15,2013-06-13 12:08:00,
2013-06-13 07:13:00,56.5,51.4,30.03,North,0,0.0,-999.0,83,0.00,,,0.00,Wunderground v.1.15,2013-06-13 12:13:00,
2013-06-13 07:18:00,58.3,52.5,30.03,NE,45,0.0,-999.0,81,0.00,,,0.00,Wunderground v.1.15,2013-06-13 12:18:00,
2013-06-13 07:23:00,58.3,52.5,30.03,NE,45,0.0,-999.0,81,0.00,,,0.00,Wunderground v.1.15,2013-06-13 12:23:00,
2013-06-13 07:28:00,58.3,52.5,30.03,NE,45,0.0,-999.0,81,0.00,,,0.00,Wunderground v.1.15,2013-06-13 12:28:00,
2013-06-13 07:33:00,58.3,52.5,30.03,NE,45,0.0,-999.0,81,0.00,,,0.00,Wunderground v.1.15,2013-06-13 12:33:00,
2013-06-13 07:38:00,58.3,52.5,30.03,NE,45,0.0,-999.0,81,0.00,,,0.00,Wunderground v.1.15,2013-06-13 12:38:00,
2013-06-13 07:43:00,58.3,52.5,30.03,NE,45,0.0,-999.0,81,0.00,,,0.00,Wunderground v.1.15,2013-06-13 12:43:00,
2013-06-13 07:48:00,60.2,53.0,30.03,NE,45,0.0,-999.0,77,0.00,,,0.00,Wunderground v.1.15,2013-06-13 12:48:00,
2013-06-13 07:53:00,60.2,53.0,30.03,NE,45,0.0,-999.0,77,0.00,,,0.00,Wunderground v.1.15,2013-06-13 12:53:00,
2013-06-13 07:58:00,60.2,53.0,30.03,NE,45,0.0,-999.0,77,0.00,,,0.00,Wunderground v.1.15,2013-06-13 12:58:00,
2013-06-13 08:03:00,60.2,53.0,30.03,NE,45,0.0,-999.0,77,0.00,,,0.00,Wunderground v.1.15,2013-06-13 13:03:00,
2013-06-13 08:08:00,60.2,53.0,30.03,NE,45,0.0,-999.0,77,0.00,,,0.00,Wunderground v.1.15,2013-06-13 13:08:00,
2013-06-13 08:13:00,60.2,53.0,30.03,NE,45,0.0,-999.0,77,0.00,,,0.00,Wunderground v.1.15,2013-06-13 13:13:00,
2013-06-13 08:18:00,62.0,54.7,30.04,NNE,23,1.0,-999.0,77,0.00,,,0.00,Wunderground v.1.15,2013-06-13 13:18:00,
2013-06-13 08:23:00,62.0,54.7,30.04,NNE,23,1.0,-999.0,77,0.00,,,0.00,Wunderground v.1.15,2013-06-13 13:23:00,
2013-06-13 08:28:00,62.0,54.7,30.04,NNE,23,1.0,-999.0,77,0.00,,,0.00,Wunderground v.1.15,2013-06-13 13:28:00,
2013-06-13 08:33:00,62.0,54.7,30.04,NNE,23,1.0,-999.0,77,0.00,,,0.00,Wunderground v.1.15,2013-06-13 13:33:00,
2013-06-13 08:38:00,62.0,54.7,30.04,NNE,23,1.0,-999.0,77,0.00,,,0.00,Wunderground v.1.15,2013-06-13 13:38:00,
2013-06-13 08:43:00,62.0,54.7,30.04,NNE,23,1.0,-999.0,77,0.00,,,0.00,Wunderground v.1.15,2013-06-13 13:43:00,
2013-06-13 08:48:00,63.5,55.1,30.05,NE,45,0.0,-999.0,74,0.00,,,0.00,Wunderground v.1.15,2013-06-13 13:48:00,
2013-06-13 08:53:00,63.5,55.1,30.05,NE,45,0.0,-999.0,74,0.00,,,0.00,Wunderground v.1.15,2013-06-13 13:53:00,
2013-06-13 08:58:00,63.5,55.1,30.05,NE,45,0.0,-999.0,74,0.00,,,0.00,Wunderground v.1.15,2013-06-13 13:58:00,
2013-06-13 09:03:00,63.5,55.1,30.05,NE,45,0.0,-999.0,74,0.00,,,0.00,Wunderground v.1.15,2013-06-13 14:03:00,
2013-06-13 09:08:00,63.5,55.1,30.05,NE,45,0.0,-999.0,74,0.00,,,0.00,Wunderground v.1.15,2013-06-13 14:08:00,
2013-06-13 09:13:00,63.5,55.1,30.05,NE,45,0.0,-999.0,74,0.00,,,0.00,Wunderground v.1.15,2013-06-13 14:13:00,
2013-06-13 09:18:00,64.9,56.0,30.05,NE,45,0.0,-999.0,73,0.00,,,0.00,Wunderground v.1.15,2013-06-13 14:18:00,
2013-06-13 09:23:00,64.9,56.0,30.05,NE,45,0.0,-999.0,73,0.00,,,0.00,Wunderground v.1.15,2013-06-13 14:23:00,
2013-06-13 09:28:00,64.9,56.0,30.05,NE,45,0.0,-999.0,73,0.00,,,0.00,Wunderground v.1.15,2013-06-13 14:28:00,
2013-06-13 09:33:00,64.9,56.0,30.05,NE,45,0.0,-999.0,73,0.00,,,0.00,Wunderground v.1.15,2013-06-13 14:33:00,
2013-06-13 09:38:00,64.9,56.0,30.05,NE,45,0.0,-999.0,73,0.00,,,0.00,Wunderground v.1.15,2013-06-13 14:38:00,
2013-06-13 09:43:00,64.9,56.0,30.05,NE,45,0.0,-999.0,73,0.00,,,0.00,Wunderground v.1.15,2013-06-13 14:43:00,
2013-06-13 09:48:00,66.7,56.6,30.05,ENE,68,0.0,-999.0,70,0.00,,,0.00,Wunderground v.1.15,2013-06-13 14:48:00,
2013-06-13 09:53:00,66.7,56.6,30.05,ENE,68,0.0,-999.0,70,0.00,,,0.00,Wunderground v.1.15,2013-06-13 14:53:00,
2013-06-13 09:58:00,66.7,56.6,30.05,ENE,68,0.0,-999.0,70,0.00,,,0.00,Wunderground v.1.15,2013-06-13 14:58:00,
2013-06-13 10:03:00,66.7,56.6,30.05,ENE,68,0.0,-999.0,70,0.00,,,0.00,Wunderground v.1.15,2013-06-13 15:03:00,
2013-06-13 10:08:00,66.7,56.6,30.05,ENE,68,0.0,-999.0,70,0.00,,,0.00,Wunderground v.1.15,2013-06-13 15:08:00,
2013-06-13 10:13:00,66.7,56.6,30.05,ENE,68,0.0,-999.0,70,0.00,,,0.00,Wunderground v.1.15,2013-06-13 15:13:00,
2013-06-13 10:18:00,69.7,57.4,30.06,NNE,23,0.0,-999.0,65,0.00,,,0.00,Wunderground v.1.15,2013-06-13 15:18:00,
2013-06-13 10:23:00,69.7,57.4,30.06,NNE,23,0.0,-999.0,65,0.00,,,0.00,Wunderground v.1.15,2013-06-13 15:23:00,
2013-06-13 10:28:00,69.7,57.4,30.06,NNE,23,0.0,-999.0,65,0.00,,,0.00,Wunderground v.1.15,2013-06-13 15:28:00,
2013-06-13 10:33:00,69.7,57.4,30.06,NNE,23,0.0,-999.0,65,0.00,,,0.00,Wunderground v.1.15,2013-06-13 15:33:00,
2013-06-13 10:38:00,69.7,57.4,30.06,NNE,23,0.0,-999.0,65,0.00,,,0.00,Wunderground v.1.15,2013-06-13 15:38:00,
2013-06-13 10:43:00,69.7,57.4,30.06,NNE,23,0.0,-999.0,65,0.00,,,0.00,Wunderground v.1.15,2013-06-13 15:43:00,
2013-06-13 10:48:00,70.8,58.4,30.06,North,0,0.0,-999.0,65,0.00,,,0.00,Wunderground v.1.15,2013-06-13 15:48:00,
2013-06-13 10:53:00,70.8,58.4,30.06,North,0,0.0,-999.0,65,0.00,,,0.00,Wunderground v.1.15,2013-06-13 15:53:00,
2013-06-13 10:58:00,70.8,58.4,30.06,North,0,0.0,-999.0,65,0.00,,,0.00,Wunderground v.1.15,2013-06-13 15:58:00,
2013-06-13 11:03:00,70.8,58.4,30.06,North,0,0.0,-999.0,65,0.00,,,0.00,Wunderground v.1.15,2013-06-13 16:03:00,
2013-06-13 11:08:00,70.8,58.4,30.06,North,0,0.0,-999.0,65,0.00,,,0.00,Wunderground v.1.15,2013-06-13 16:08:00,
2013-06-13 11:13:00,70.8,58.4,30.06,North,0,0.0,-999.0,65,0.00,,,0.00,Wunderground v.1.15,2013-06-13 16:13:00,
2013-06-13 11:18:00,72.0,57.8,30.06,North,0,0.0,-999.0,61,0.00,,,0.00,Wunderground v.1.15,2013-06-13 16:18:00,
2013-06-13 11:23:00,72.0,57.8,30.06,North,0,0.0,-999.0,61,0.00,,,0.00,Wunderground v.1.15,2013-06-13 16:23:00,
2013-06-13 11:28:00,72.0,57.8,30.06,North,0,0.0,-999.0,61,0.00,,,0.00,Wunderground v.1.15,2013-06-13 16:28:00,
2013-06-13 11:33:00,72.0,57.8,30.06,North,0,0.0,-999.0,61,0.00,,,0.00,Wunderground v.1.15,2013-06-13 16:33:00,
2013-06-13 11:38:00,72.0,57.8,30.06,North,0,0.0,-999.0,61,0.00,,,0.00,Wunderground v.1.15,2013-06-13 16:38:00,
2013-06-13 11:43:00,72.0,57.8,30.06,North,0,0.0,-999.0,61,0.00,,,0.00,Wunderground v.1.15,2013-06-13 16:43:00,
2013-06-13 11:48:00,73.3,56.2,30.06,North,0,0.0,-999.0,55,0.00,,,0.00,Wunderground v.1.15,2013-06-13 16:48:00,
2013-06-13 11:53:00,73.3,56.2,30.06,North,0,0.0,-999.0,55,0.00,,,0.00,Wunderground v.1.15,2013-06-13 16:53:00,
2013-06-13 11:58:00,73.3,56.2,30.06,North,0,0.0,-999.0,55,0.00,,,0.00,Wunderground v.1.15,2013-06-13 16:58:00,
2013-06-13 12:03:00,73.3,56.2,30.06,North,0,0.0,-999.0,55,0.00,,,0.00,Wunderground v.1.15,2013-06-13 17:03:00,
2013-06-13 12:08:00,73.3,56.2,30.06,North,0,0.0,-999.0,55,0.00,,,0.00,Wunderground v.1.15,2013-06-13 17:08:00,
2013-06-13 12:13:00,73.3,56.2,30.06,North,0,0.0,-999.0,55,0.00,,,0.00,Wunderground v.1.15,2013-06-13 17:13:00,
2013-06-13 12:18:00,74.7,57.5,30.06,North,0,1.0,-999.0,55,0.00,,,0.00,Wunderground v.1.15,2013-06-13 17:18:00,
2013-06-13 12:23:00,74.7,57.5,30.06,North,0,1.0,-999.0,55,0.00,,,0.00,Wunderground v.1.15,2013-06-13 17:23:00,
2013-06-13 12:28:00,74.7,57.5,30.06,North,0,1.0,-999.0,55,0.00,,,0.00,Wunderground v.1.15,2013-06-13 17:28:00,
2013-06-13 12:33:00,74.7,57.5,30.06,North,0,1.0,-999.0,55,0.00,,,0.00,Wunderground v.1.15,2013-06-13 17:33:00,
2013-06-13 12:38:00,74.7,57.5,30.06,North,0,1.0,-999.0,55,0.00,,,0.00,Wunderground v.1.15,2013-06-13 17:38:00,
2013-06-13 12:43:00,74.7,57.5,30.06,North,0,1.0,-999.0,55,0.00,,,0.00,Wunderground v.1.15,2013-06-13 17:43:00,
2013-06-13 12:48:00,76.4,58.5,30.05,North,0,2.0,-999.0,54,0.00,,,0.00,Wunderground v.1.15,2013-06-13 17:48:00,
2013-06-13 12:53:00,76.4,58.5,30.05,North,0,2.0,-999.0,54,0.00,,,0.00,Wunderground v.1.15,2013-06-13 17:53:00,
2013-06-13 12:58:00,76.4,58.5,30.05,North,0,2.0,-999.0,54,0.00,,,0.00,Wunderground v.1.15,2013-06-13 17:58:00,
2013-06-13 13:03:00,76.4,58.5,30.05,North,0,2.0,-999.0,54,0.00,,,0.00,Wunderground v.1.15,2013-06-13 18:03:00,
2013-06-13 13:08:00,76.4,58.5,30.05,North,0,2.0,-999.0,54,0.00,,,0.00,Wunderground v.1.15,2013-06-13 18:08:00,
2013-06-13 13:13:00,76.4,58.5,30.05,North,0,2.0,-999.0,54,0.00,,,0.00,Wunderground v.1.15,2013-06-13 18:13:00,
2013-06-13 13:18:00,78.2,59.7,30.05,NE,45,1.0,-999.0,53,0.00,,,0.00,Wunderground v.1.15,2013-06-13 18:18:00,
2013-06-13 13:23:00,78.2,59.7,30.05,NE,45,1.0,-999.0,53,0.00,,,0.00,Wunderground v.1.15,2013-06-13 18:23:00,
2013-06-13 13:28:00,78.2,59.7,30.05,NE,45,1.0,-999.0,53,0.00,,,0.00,Wunderground v.1.15,2013-06-13 18:28:00,
2013-06-13 13:33:00,78.2,59.7,30.05,NE,45,1.0,-999.0,53,0.00,,,0.00,Wunderground v.1.15,2013-06-13 18:33:00,
2013-06-13 13:38:00,78.2,59.7,30.05,NE,45,1.0,-999.0,53,0.00,,,0.00,Wunderground v.1.15,2013-06-13 18:38:00,
2013-06-13 13:43:00,78.2,59.7,30.05,NE,45,1.0,-999.0,53,0.00,,,0.00,Wunderground v.1.15,2013-06-13 18:43:00,
2013-06-13 13:48:00,79.4,58.0,30.04,North,0,1.0,-999.0,48,0.00,,,0.00,Wunderground v.1.15,2013-06-13 18:48:00,
2013-06-13 13:53:00,79.4,58.0,30.04,North,0,1.0,-999.0,48,0.00,,,0.00,Wunderground v.1.15,2013-06-13 18:53:00,
2013-06-13 13:58:00,79.4,58.0,30.04,North,0,1.0,-999.0,48,0.00,,,0.00,Wunderground v.1.15,2013-06-13 18:58:00,
2013-06-13 14:03:00,79.4,58.0,30.04,North,0,1.0,-999.0,48,0.00,,,0.00,Wunderground v.1.15,2013-06-13 19:03:00,
2013-06-13 14:08:00,79.4,58.0,30.04,North,0,1.0,-999.0,48,0.00,,,0.00,Wunderground v.1.15,2013-06-13 19:08:00,
2013-06-13 14:13:00,79.4,58.0,30.04,North,0,1.0,-999.0,48,0.00,,,0.00,Wunderground v.1.15,2013-06-13 19:13:00,
2013-06-13 14:18:00,77.0,58.0,30.04,North,0,1.0,-999.0,52,0.00,,,0.00,Wunderground v.1.15,2013-06-13 19:18:00,
2013-06-13 14:23:00,77.0,58.0,30.04,North,0,1.0,-999.0,52,0.00,,,0.00,Wunderground v.1.15,2013-06-13 19:23:00,
2013-06-13 14:28:00,77.0,58.0,30.04,North,0,1.0,-999.0,52,0.00,,,0.00,Wunderground v.1.15,2013-06-13 19:28:00,
2013-06-13 14:33:00,77.0,58.0,30.04,North,0,1.0,-999.0,52,0.00,,,0.00,Wunderground v.1.15,2013-06-13 19:33:00,
2013-06-13 14:38:00,77.0,58.0,30.04,North,0,1.0,-999.0,52,0.00,,,0.00,Wunderground v.1.15,2013-06-13 19:38:00,
2013-06-13 14:43:00,77.0,58.0,30.04,North,0,1.0,-999.0,52,0.00,,,0.00,Wunderground v.1.15,2013-06-13 19:43:00,
2013-06-13 14:48:00,77.8,58.2,30.04,NE,45,1.0,-999.0,51,0.00,,,0.00,Wunderground v.1.15,2013-06-13 19:48:00,
2013-06-13 14:53:00,77.8,58.2,30.04,NE,45,1.0,-999.0,51,0.00,,,0.00,Wunderground v.1.15,2013-06-13 19:53:00,
2013-06-13 14:58:00,77.8,58.2,30.04,NE,45,1.0,-999.0,51,0.00,,,0.00,Wunderground v.1.15,2013-06-13 19:58:00,
2013-06-13 15:03:00,77.8,58.2,30.04,NE,45,1.0,-999.0,51,0.00,,,0.00,Wunderground v.1.15,2013-06-13 20:03:00,
2013-06-13 15:08:00,77.8,58.2,30.04,NE,45,1.0,-999.0,51,0.00,,,0.00,Wunderground v.1.15,2013-06-13 20:08:00,
2013-06-13 15:13:00,77.8,58.2,30.04,NE,45,1.0,-999.0,51,0.00,,,0.00,Wunderground v.1.15,2013-06-13 20:13:00,
2013-06-13 15:18:00,79.3,59.6,30.03,NE,45,1.0,-999.0,51,0.00,,,0.00,Wunderground v.1.15,2013-06-13 20:18:00,
2013-06-13 15:23:00,79.3,59.6,30.03,NE,45,1.0,-999.0,51,0.00,,,0.00,Wunderground v.1.15,2013-06-13 20:23:00,
2013-06-13 15:28:00,79.3,59.6,30.03,NE,45,1.0,-999.0,51,0.00,,,0.00,Wunderground v.1.15,2013-06-13 20:28:00,
2013-06-13 15:33:00,79.3,59.6,30.03,NE,45,1.0,-999.0,51,0.00,,,0.00,Wunderground v.1.15,2013-06-13 20:33:00,
2013-06-13 15:38:00,79.3,59.6,30.03,NE,45,1.0,-999.0,51,0.00,,,0.00,Wunderground v.1.15,2013-06-13 20:38:00,
2013-06-13 15:43:00,79.3,59.6,30.03,NE,45,1.0,-999.0,51,0.00,,,0.00,Wunderground v.1.15,2013-06-13 20:43:00,
2013-06-13 15:48:00,79.2,58.4,30.03,NE,45,1.0,-999.0,49,0.00,,,0.00,Wunderground v.1.15,2013-06-13 20:48:00,
2013-06-13 15:53:00,79.2,58.4,30.03,NE,45,1.0,-999.0,49,0.00,,,0.00,Wunderground v.1.15,2013-06-13 20:53:00,
2013-06-13 15:58:00,79.2,58.4,30.03,NE,45,1.0,-999.0,49,0.00,,,0.00,Wunderground v.1.15,2013-06-13 20:58:00,
2013-06-13 16:03:00,79.2,58.4,30.03,NE,45,1.0,-999.0,49,0.00,,,0.00,Wunderground v.1.15,2013-06-13 21:03:00,
2013-06-13 16:08:00,79.2,58.4,30.03,NE,45,1.0,-999.0,49,0.00,,,0.00,Wunderground v.1.15,2013-06-13 21:08:00,
2013-06-13 16:13:00,79.2,58.4,30.03,NE,45,1.0,-999.0,49,0.00,,,0.00,Wunderground v.1.15,2013-06-13 21:13:00,
2013-06-13 16:18:00,79.0,59.9,30.02,NE,45,1.0,-999.0,52,0.00,,,0.00,Wunderground v.1.15,2013-06-13 21:18:00,
2013-06-13 16:23:00,79.0,59.9,30.02,NE,45,1.0,-999.0,52,0.00,,,0.00,Wunderground v.1.15,2013-06-13 21:23:00,
2013-06-13 16:28:00,79.0,59.9,30.02,NE,45,1.0,-999.0,52,0.00,,,0.00,Wunderground v.1.15,2013-06-13 21:28:00,
2013-06-13 16:33:00,79.0,59.9,30.02,NE,45,1.0,-999.0,52,0.00,,,0.00,Wunderground v.1.15,2013-06-13 21:33:00,
2013-06-13 16:38:00,79.0,59.9,30.02,NE,45,1.0,-999.0,52,0.00,,,0.00,Wunderground v.1.15,2013-06-13 21:38:00,
2013-06-13 16:43:00,79.0,59.9,30.02,NE,45,1.0,-999.0,52,0.00,,,0.00,Wunderground v.1.15,2013-06-13 21:43:00,
2013-06-13 16:48:00,79.2,58.4,30.01,ENE,68,1.0,-999.0,49,0.00,,,0.00,Wunderground v.1.15,2013-06-13 21:48:00,
2013-06-13 16:53:00,79.2,58.4,30.01,ENE,68,1.0,-999.0,49,0.00,,,0.00,Wunderground v.1.15,2013-06-13 21:53:00,
2013-06-13 16:58:00,79.2,58.4,30.01,ENE,68,1.0,-999.0,49,0.00,,,0.00,Wunderground v.1.15,2013-06-13 21:58:00,
2013-06-13 17:03:00,79.2,58.4,30.01,ENE,68,1.0,-999.0,49,0.00,,,0.00,Wunderground v.1.15,2013-06-13 22:03:00,
2013-06-13 17:08:00,79.2,58.4,30.01,ENE,68,1.0,-999.0,49,0.00,,,0.00,Wunderground v.1.15,2013-06-13 22:08:00,
2013-06-13 17:13:00,79.2,58.4,30.01,ENE,68,1.0,-999.0,49,0.00,,,0.00,Wunderground v.1.15,2013-06-13 22:13:00,
2013-06-13 17:18:00,78.6,57.8,30.02,ENE,68,2.0,-999.0,49,0.00,,,0.00,Wunderground v.1.15,2013-06-13 22:18:00,
2013-06-13 17:23:00,78.6,57.8,30.02,ENE,68,2.0,-999.0,49,0.00,,,0.00,Wunderground v.1.15,2013-06-13 22:23:00,
2013-06-13 17:28:00,78.6,57.8,30.02,ENE,68,2.0,-999.0,49,0.00,,,0.00,Wunderground v.1.15,2013-06-13 22:28:00,
2013-06-13 17:33:00,78.6,57.8,30.02,ENE,68,2.0,-999.0,49,0.00,,,0.00,Wunderground v.1.15,2013-06-13 22:33:00,
2013-06-13 17:38:00,78.6,57.8,30.02,ENE,68,2.0,-999.0,49,0.00,,,0.00,Wunderground v.1.15,2013-06-13 22:38:00,
2013-06-13 17:43:00,78.6,57.8,30.02,ENE,68,2.0,-999.0,49,0.00,,,0.00,Wunderground v.1.15,2013-06-13 22:43:00,
2013-06-13 17:48:00,78.4,57.7,30.01,ENE,68,0.0,-999.0,49,0.00,,,0.00,Wunderground v.1.15,2013-06-13 22:48:00,
2013-06-13 17:53:00,78.4,57.7,30.01,ENE,68,0.0,-999.0,49,0.00,,,0.00,Wunderground v.1.15,2013-06-13 22:53:00,
2013-06-13 17:58:00,78.4,57.7,30.01,ENE,68,0.0,-999.0,49,0.00,,,0.00,Wunderground v.1.15,2013-06-13 22:58:00,
2013-06-13 18:03:00,78.4,57.7,30.01,ENE,68,0.0,-999.0,49,0.00,,,0.00,Wunderground v.1.15,2013-06-13 23:03:00,
2013-06-13 18:08:00,78.4,57.7,30.01,ENE,68,0.0,-999.0,49,0.00,,,0.00,Wunderground v.1.15,2013-06-13 23:08:00,
2013-06-13 18:13:00,78.4,57.7,30.01,ENE,68,0.0,-999.0,49,0.00,,,0.00,Wunderground v.1.15,2013-06-13 23:13:00,
2013-06-13 18:18:00,77.0,58.6,30.02,ENE,68,0.0,-999.0,53,0.00,,,0.00,Wunderground v.1.15,2013-06-13 23:18:00,
2013-06-13 18:23:00,77.0,58.6,30.02,ENE,68,0.0,-999.0,53,0.00,,,0.00,Wunderground v.1.15,2013-06-13 23:23:00,
2013-06-13 18:28:00,77.0,58.6,30.02,ENE,68,0.0,-999.0,53,0.00,,,0.00,Wunderground v.1.15,2013-06-13 23:28:00,
2013-06-13 18:33:00,77.0,58.6,30.02,ENE,68,0.0,-999.0,53,0.00,,,0.00,Wunderground v.1.15,2013-06-13 23:33:00,
2013-06-13 18:38:00,77.0,58.6,30.02,ENE,68,0.0,-999.0,53,0.00,,,0.00,Wunderground v.1.15,2013-06-13 23:38:00,
2013-06-13 18:43:00,77.0,58.6,30.02,ENE,68,0.0,-999.0,53,0.00,,,0.00,Wunderground v.1.15,2013-06-13 23:43:00,
2013-06-13 18:48:00,73.9,58.2,30.02,East,90,0.0,-999.0,58,0.00,,,0.00,Wunderground v.1.15,2013-06-13 23:48:00,
2013-06-13 18:53:00,73.9,58.2,30.02,East,90,0.0,-999.0,58,0.00,,,0.00,Wunderground v.1.15,2013-06-13 23:53:00,
2013-06-13 18:58:00,73.9,58.2,30.02,East,90,0.0,-999.0,58,0.00,,,0.00,Wunderground v.1.15,2013-06-13 23:58:00,
2013-06-13 19:03:00,73.9,58.2,30.02,East,90,0.0,-999.0,58,0.00,,,0.00,Wunderground v.1.15,2013-06-14 00:03:00,
2013-06-13 19:08:00,73.9,58.2,30.02,East,90,0.0,-999.0,58,0.00,,,0.00,Wunderground v.1.15,2013-06-14 00:08:00,
2013-06-13 19:13:00,73.9,58.2,30.02,East,90,0.0,-999.0,58,0.00,,,0.00,Wunderground v.1.15,2013-06-14 00:13:00,
2013-06-13 19:18:00,72.4,57.3,30.02,East,90,0.0,-999.0,59,0.00,,,0.00,Wunderground v.1.15,2013-06-14 00:18:00,
2013-06-13 19:23:00,72.4,57.3,30.02,East,90,0.0,-999.0,59,0.00,,,0.00,Wunderground v.1.15,2013-06-14 00:23:00,
2013-06-13 19:28:00,72.4,57.3,30.02,East,90,0.0,-999.0,59,0.00,,,0.00,Wunderground v.1.15,2013-06-14 00:28:00,
2013-06-13 19:33:00,72.4,57.3,30.02,East,90,0.0,-999.0,59,0.00,,,0.00,Wunderground v.1.15,2013-06-14 00:33:00,
2013-06-13 19:38:00,72.4,57.3,30.02,East,90,0.0,-999.0,59,0.00,,,0.00,Wunderground v.1.15,2013-06-14 00:38:00,
2013-06-13 19:43:00,72.4,57.3,30.02,East,90,0.0,-999.0,59,0.00,,,0.00,Wunderground v.1.15,2013-06-14 00:43:00,
2013-06-13 19:48:00,70.9,56.8,30.02,East,90,0.0,-999.0,61,0.00,,,0.00,Wunderground v.1.15,2013-06-14 00:48:00,
2013-06-13 19:53:00,70.9,56.8,30.02,East,90,0.0,-999.0,61,0.00,,,0.00,Wunderground v.1.15,2013-06-14 00:53:00,
2013-06-13 19:58:00,70.9,56.8,30.02,East,90,0.0,-999.0,61,0.00,,,0.00,Wunderground v.1.15,2013-06-14 00:58:00,
2013-06-13 20:03:00,70.9,56.8,30.02,East,90,0.0,-999.0,61,0.00,,,0.00,Wunderground v.1.15,2013-06-14 01:03:00,
2013-06-13 20:08:00,70.9,56.8,30.02,East,90,0.0,-999.0,61,0.00,,,0.00,Wunderground v.1.15,2013-06-14 01:08:00,
2013-06-13 20:13:00,70.9,56.8,30.02,East,90,0.0,-999.0,61,0.00,,,0.00,Wunderground v.1.15,2013-06-14 01:13:00,
2013-06-13 20:18:00,68.9,56.2,30.02,N/A,-737280,0.0,-999.0,64,0.00,,,0.00,Wunderground v.1.15,2013-06-14 01:18:00,
2013-06-13 20:23:00,68.9,56.2,30.02,N/A,-737280,0.0,-999.0,64,0.00,,,0.00,Wunderground v.1.15,2013-06-14 01:23:00,
2013-06-13 20:28:00,68.9,56.2,30.02,N/A,-737280,0.0,-999.0,64,0.00,,,0.00,Wunderground v.1.15,2013-06-14 01:28:00,
2013-06-13 20:33:00,68.9,56.2,30.02,N/A,-737280,0.0,-999.0,64,0.00,,,0.00,Wunderground v.1.15,2013-06-14 01:33:00,
2013-06-13 20:38:00,68.9,56.2,30.02,N/A,-737280,0.0,-999.0,64,0.00,,,0.00,Wunderground v.1.15,2013-06-14 01:38:00,
2013-06-13 20:43:00,68.9,56.2,30.02,N/A,-737280,0.0,-999.0,64,0.00,,,0.00,Wunderground v.1.15,2013-06-14 01:43:00,
2013-06-13 20:48:00,66.9,55.6,30.02,N/A,-737280,0.0,-999.0,67,0.00,,,0.00,Wunderground v.1.15,2013-06-14 01:48:00,
2013-06-13 20:53:00,66.9,55.6,30.02,N/A,-737280,0.0,-999.0,67,0.00,,,0.00,Wunderground v.1.15,2013-06-14 01:53:00,
2013-06-13 20:58:00,66.9,55.6,30.02,N/A,-737280,0.0,-999.0,67,0.00,,,0.00,Wunderground v.1.15,2013-06-14 01:58:00,
2013-06-13 21:03:00,66.9,55.6,30.02,N/A,-737280,0.0,-999.0,67,0.00,,,0.00,Wunderground v.1.15,2013-06-14 02:03:00,
2013-06-13 21:08:00,66.9,55.6,30.02,N/A,-737280,0.0,-999.0,67,0.00,,,0.00,Wunderground v.1.15,2013-06-14 02:08:00,
2013-06-13 21:13:00,66.9,55.6,30.02,N/A,-737280,0.0,-999.0,67,0.00,,,0.00,Wunderground v.1.15,2013-06-14 02:13:00,
2013-06-13 21:18:00,64.9,55.3,30.02,N/A,-737280,0.0,-999.0,71,0.00,,,0.00,Wunderground v.1.15,2013-06-14 02:18:00,
2013-06-13 21:23:00,64.9,55.3,30.02,N/A,-737280,0.0,-999.0,71,0.00,,,0.00,Wunderground v.1.15,2013-06-14 02:23:00,
2013-06-13 21:28:00,64.9,55.3,30.02,N/A,-737280,0.0,-999.0,71,0.00,,,0.00,Wunderground v.1.15,2013-06-14 02:28:00,
2013-06-13 21:33:00,64.9,55.3,30.02,N/A,-737280,0.0,-999.0,71,0.00,,,0.00,Wunderground v.1.15,2013-06-14 02:33:00,
2013-06-13 21:38:00,64.9,55.3,30.02,N/A,-737280,0.0,-999.0,71,0.00,,,0.00,Wunderground v.1.15,2013-06-14 02:38:00,
2013-06-13 21:43:00,64.9,55.3,30.02,N/A,-737280,0.0,-999.0,71,0.00,,,0.00,Wunderground v.1.15,2013-06-14 02:43:00,
2013-06-13 21:48:00,63.1,55.0,30.03,N/A,-737280,0.0,-999.0,75,0.00,,,0.00,Wunderground v.1.15,2013-06-14 02:48:00,
2013-06-13 21:53:00,63.1,55.0,30.03,N/A,-737280,0.0,-999.0,75,0.00,,,0.00,Wunderground v.1.15,2013-06-14 02:53:00,
2013-06-13 21:58:00,63.1,55.0,30.03,N/A,-737280,0.0,-999.0,75,0.00,,,0.00,Wunderground v.1.15,2013-06-14 02:58:00,
2013-06-13 22:03:00,63.1,55.0,30.03,N/A,-737280,0.0,-999.0,75,0.00,,,0.00,Wunderground v.1.15,2013-06-14 03:03:00,
2013-06-13 22:08:00,63.1,55.0,30.03,N/A,-737280,0.0,-999.0,75,0.00,,,0.00,Wunderground v.1.15,2013-06-14 03:08:00,
2013-06-13 22:13:00,63.1,55.0,30.03,N/A,-737280,0.0,-999.0,75,0.00,,,0.00,Wunderground v.1.15,2013-06-14 03:13:00,
2013-06-13 22:18:00,61.8,54.9,30.03,N/A,-737280,0.0,-999.0,78,0.00,,,0.00,Wunderground v.1.15,2013-06-14 03:18:00,
2013-06-13 22:23:00,61.8,54.9,30.03,N/A,-737280,0.0,-999.0,78,0.00,,,0.00,Wunderground v.1.15,2013-06-14 03:23:00,
2013-06-13 22:28:00,61.8,54.9,30.03,N/A,-737280,0.0,-999.0,78,0.00,,,0.00,Wunderground v.1.15,2013-06-14 03:28:00,
2013-06-13 22:33:00,61.8,54.9,30.03,N/A,-737280,0.0,-999.0,78,0.00,,,0.00,Wunderground v.1.15,2013-06-14 03:33:00,
2013-06-13 22:38:00,61.8,54.9,30.03,N/A,-737280,0.0,-999.0,78,0.00,,,0.00,Wunderground v.1.15,2013-06-14 03:38:00,
2013-06-13 22:43:00,61.8,54.9,30.03,N/A,-737280,0.0,-999.0,78,0.00,,,0.00,Wunderground v.1.15,2013-06-14 03:43:00,
2013-06-13 22:48:00,60.9,55.0,30.03,N/A,-737280,0.0,-999.0,81,0.00,,,0.00,Wunderground v.1.15,2013-06-14 03:48:00,
2013-06-13 22:53:00,60.9,55.0,30.03,N/A,-737280,0.0,-999.0,81,0.00,,,0.00,Wunderground v.1.15,2013-06-14 03:53:00,
2013-06-13 22:58:00,60.9,55.0,30.03,N/A,-737280,0.0,-999.0,81,0.00,,,0.00,Wunderground v.1.15,2013-06-14 03:58:00,
2013-06-13 23:03:00,60.9,55.0,30.03,N/A,-737280,0.0,-999.0,81,0.00,,,0.00,Wunderground v.1.15,2013-06-14 04:03:00,
2013-06-13 23:08:00,60.9,55.0,30.03,N/A,-737280,0.0,-999.0,81,0.00,,,0.00,Wunderground v.1.15,2013-06-14 04:08:00,
2013-06-13 23:13:00,60.9,55.0,30.03,N/A,-737280,0.0,-999.0,81,0.00,,,0.00,Wunderground v.1.15,2013-06-14 04:13:00,
2013-06-13 23:18:00,59.8,54.6,30.04,N/A,-737280,0.0,-999.0,83,0.00,,,0.00,Wunderground v.1.15,2013-06-14 04:18:00,
2013-06-13 23:23:00,59.8,54.6,30.04,N/A,-737280,0.0,-999.0,83,0.00,,,0.00,Wunderground v.1.15,2013-06-14 04:23:00,
2013-06-13 23:28:00,59.8,54.6,30.04,N/A,-737280,0.0,-999.0,83,0.00,,,0.00,Wunderground v.1.15,2013-06-14 04:28:00,
2013-06-13 23:33:00,59.8,54.6,30.04,N/A,-737280,0.0,-999.0,83,0.00,,,0.00,Wunderground v.1.15,2013-06-14 04:33:00,
2013-06-13 23:38:00,59.8,54.6,30.04,N/A,-737280,0.0,-999.0,83,0.00,,,0.00,Wunderground v.1.15,2013-06-14 04:38:00,
2013-06-13 23:43:00,59.8,54.6,30.04,N/A,-737280,0.0,-999.0,83,0.00,,,0.00,Wunderground v.1.15,2013-06-14 04:43:00,
2013-06-13 23:48:00,59.0,53.8,30.03,N/A,-737280,0.0,-999.0,83,0.00,,,0.00,Wunderground v.1.15,2013-06-14 04:48:00,
2013-06-13 23:53:00,59.0,53.8,30.03,N/A,-737280,0.0,-999.0,83,0.00,,,0.00,Wunderground v.1.15,2013-06-14 04:53:00,
2013-06-13 23:58:00,59.0,53.8,30.03,N/A,-737280,0.0,-999.0,83,0.00,,,0.00,Wunderground v.1.15,2013-06-14 04:58:00,